Regional Weather Roundup
Issued by NWS

Home | Current Version | Previous Version | Text Only | Print | Product List | Glossary Off
Versions: 1 2 3 4 5 6 7 8 9 10 11 12 13 14 15 16 17 18 19 20 21 22 23 24 25 26 27 28 29 30 31 32 33 34 35 36 37 38 39 40 41 42 43 44 45 46 47 48 49 50

504
ASUS44 KMEG 191610
RWRTN
TENNESSEE HOURLY STATE WEATHER ROUNDUP
NATIONAL WEATHER SERVICE MEMPHIS TN
1100 AM CDT TUE SEP 19 2017

TNZ002-004-019-021-049-052-054-088>092-191700-
WEST TENNESSEE

CITY           SKY/WX    TMP DP  RH WIND       PRES   REMARKS
MEMPHIS INTL   MOSUNNY   83  74  74 CALM      30.00S
NWS MEMPHIS      N/A     84 N/A N/A MISG        N/A
JACKSON        SUNNY     84  74  71 SW7       30.00F HX  91
DYERSBURG      MOSUNNY   84  75  74 SW9       29.99S HX  92
SOMERVILLE     SUNNY     86  73  66 VRB5      29.99F HX  93
COVINGTON      SUNNY     84  75  74 SW5       29.99S HX  92
BOLIVAR        MOSUNNY   84  73  70 SW6       30.00S HX  91
PARIS          SUNNY     82  72  69 VRB5      29.98F
HUNTINGDON     SUNNY     82  73  74 VRB5G12   29.99S
LEXINGTON      MOSUNNY   82  72  69 S5        30.00F
SELMER         SUNNY     82  72  69 W7        30.01S
SAVANNAH       SUNNY     84  72  65 W5        30.00S
$$

TNZ008-025-027-028-033-062-065-066-191700-
NORTH MIDDLE TENNESSEE

CITY           SKY/WX    TMP DP  RH WIND       PRES   REMARKS
NASHVILLE      CLOUDY    83  69  62 NW3       30.02S
PORTLAND       PTSUNNY   70  68  94 SE8       30.03F
CLARKSVILLE    PTSUNNY   83  69  62 NW7       30.00S
SMYRNA         CLOUDY    81  72  73 SW8       30.03F
COOKEVILLE     SUNNY     84  68  58 S7        30.04F
GALLATIN       FOG       72  68  88 NE7       30.06S VSB 3/4
CROSSVILLE     MOSUNNY   78  64  61 W8        30.10S
$$

TNZ061-075-076-078-094-096-097-191700-
SOUTH MIDDLE TENNESSEE

CITY           SKY/WX    TMP DP  RH WIND       PRES   REMARKS
FAYETTEVILLE   MOSUNNY   82  70  65 SW8       30.04S
TULLAHOMA      SUNNY     82  66  57 SW5       30.06S
WINCHESTER     MOSUNNY   82  68  61 SW7       30.05R
MCMINNVILLE    SUNNY     82  70  65 SW7       30.05S
COLUMBIA       MOSUNNY   81  73  78 VRB6      30.01R
SHELBYVILLE    MOSUNNY   81  70  69 SW9       30.03S
$$

TNZ017-018-042-046-047-191700-
NORTHEAST TENNESSEE

CITY           SKY/WX    TMP DP  RH WIND       PRES   REMARKS
TRI CITIES     MOSUNNY   76  62  62 CALM      30.07F
ELIZABETHTON   SUNNY     79  61  53 CALM      30.07F
$$

TNZ012-013-036-069-073-074-191700-
CENTRAL EAST TENNESSEE

CITY           SKY/WX    TMP DP  RH WIND       PRES   REMARKS
KNOXVILLE      MOSUNNY   78  64  61 VRB3      30.05S
OAK RIDGE      SUNNY     78  64  61 VRB3      30.07S
DOWNTOWN KNOXV SUNNY     79  66  65 CALM      30.05S
GATLINBURG     SUNNY     81  61  50 NW6       30.05S
MORRISTOWN     SUNNY     79  63  57 CALM      30.06S
JACKSBORO      SUNNY     77  64  65 CALM      30.10S
$$

TNZ083-085-099-191700-
SOUTHEAST TENNESSEE

CITY           SKY/WX    TMP DP  RH WIND       PRES   REMARKS
CHATTANOOGA    MOSUNNY   81  64  56 VRB3      30.05S
DAYTON         SUNNY     79  70  73 CALM      30.05S
$$

SKY/WX REPORTED AS FAIR MEANS FEW OR NO CLOUDS BELOW
12 THOUSAND FEET.





USA.gov is the U.S. government's official web portal to all federal, state and local government web resources and services.